www.pogodaiklimat.ru

ПОГОДА в Уитфилде, NH

  • Прогноз погоды в Уитфилде
  • Монитор погоды в Уитфилде
  • Климат в Уитфилде

АРХИВ ПОГОДЫ в Уитфилде

Время (UTC), дата Ветер
(напр.,м/с)
 
Видим.   Явления Облачность Т
(С)
Тd
(С)
f
(%)
Тe
(С)
Тes
(С)
Комфортность

P
(гПа)

Po
(гПа)
Тmin
(С)
Tmax
(С)
R
(мм)
SD
(см)
03:52 25.03 ЮЗ  6 км  слабый снег  10/10 510 м  +0.6  -2.2  81  -3  -3    1014.4  974.7         
04:15 25.03 З  3 км  слабый снег  10/10 450 м  +0.6  -2.2  81  -3  -3      974.7         
04:22 25.03 З  2 км  слабый снег  10/10 450 м  +0.6  -2.2  81  -4  -4      975.1         
04:52 25.03   2 км  слабый снег, дымка  10/10 450 м  0.0  -1.7  88  -1  -1    1015.0  975.1  0.0  +4.4  0.3   
05:01 25.03   2 км  слабый снег, дымка  10/10 360 м  0.0  -1.1  92  -1  -1      975.4         
05:08 25.03 нст  3 км  слабый снег, дымка  10/10 360 м  0.0  -1.7  88  -4  -4      975.4         
05:11 25.03 СЗ  3 км  слабый снег, дымка  10/10 270 м  0.0  -1.7  88  -5  -5      975.4         
05:23 25.03 З  8 км  слабый снег, дымка  10/10 330 м  0.0  -2.2  85  -6  -6      975.4         
05:29 25.03 З  11 км  слабый снег  10/10 330 м  0.0  -3.3  78  -5  -5      975.4         
05:52 25.03 З  16 км    10/10 990 м  -0.6  -4.4  75  -5  -5    1015.4  975.7         
06:52 25.03 СЗ  16 км    10/8 810 м
[средняя] 
-1.7  -7.8  63  -8  -8    1016.0  976.0         
07:52 25.03 СЗ  16 км    ясно  -3.3  -10.0  60  -10  -10    1016.8  976.7      0.3   
08:52 25.03 СЗ  16 км    ясно  -4.4  -11.1  59  -10  -10    1017.3  977.3         
09:52 25.03 З  16 км    ясно  -5.6  -15.6  45  -10  -10    1018.2  978.0         
10:52 25.03 З  16 км    ясно  -5.0  -13.9  50  -10  -10    1018.7  978.3  -7.8  0.0  0.3   
11:52 25.03 З  16 км    ясно  -3.9  -13.9  46  -9  -8    1019.2  979.0         
12:52 25.03 З  4
{9} 
16 км    ясно  -2.8  -15.0  38  -9  -7    1019.2  979.0         
13:52 25.03 З  6
{9} 
16 км    ясно  -1.7  -15.6  34  -8  -7    1018.8  978.3         
14:52 25.03 З  16 км    ясно  -1.1  -17.2  28  -6  -1    1018.7  978.3         
15:52 25.03 З  5
{10} 
16 км    ясно  -1.1  -18.3  26  -7  -3    1018.8  978.3         
16:52 25.03 З  7
{11} 
16 км    ясно  -0.6  -18.9  24  -7  -5    1018.9  978.6  -5.0  0.0     
17:52 25.03 З  4
{9} 
16 км    ясно  0.0  -18.9  23  -5  +2    1018.3  978.0         
18:52 25.03 СЗ  7
{10} 
16 км    ясно  0.0  -20.6  19  -6  -4    1017.8  977.3         
19:52 25.03 З  16 км    ясно  +0.6  -18.9  22  -3  +1    1017.2  976.7         
20:52 25.03 З  16 км    ясно  +0.6  -20.0  20  -5  -4    1017.2  977.0         
21:52 25.03 З  16 км    ясно  0.0  -20.6  19  -5  -5    1017.5  977.0         
22:52 25.03 СЗ  16 км    ясно  -2.2  -18.9  27  -4  -4    1018.2  977.7  -2.2  +0.6     
23:52 25.03 СЗ  16 км    ясно  -3.3  -18.9  29  -8  -8    1019.1  978.3         
00:52 26.03 З  16 км    ясно  -5.6  -16.7  41  -8  -8    1019.9  979.3         
01:52 26.03 Ю  16 км    ясно  -8.9  -15.6  58  -12  -12    1020.0  979.3         
02:52 26.03   16 км    ясно  -10.0  -16.1  61  -10  -10    1020.3  979.3         
03:52 26.03   16 км    ясно  -11.7  -16.7  66  -12  -12    1020.5  979.6         
04:52 26.03   16 км    ясно  -12.2  -16.1  73  -12  -12    1021.0  979.9  -12.8  -2.2     
05:52 26.03   16 км    ясно  -13.3  -17.2  72  -13  -13    1021.5  980.6         
06:52 26.03   16 км    ясно  -15.0  -18.9  72  -15  -15    1021.6  980.6         
07:52 26.03   16 км    ясно  -15.0  -17.8  79  -15  -15    1022.3  981.2         
08:52 26.03   16 км    ясно  -15.6  -19.4  73  -16  -16    1023.2  981.9         
09:52 26.03   14 км    ясно  -15.6  -19.4  73  -16  -16    1024.2  982.9         
10:52 26.03   16 км    ясно  -13.3  -17.2  72  -13  -13    1025.2  983.8  -16.7  -12.2     
11:52 26.03 СВ  16 км    ясно  -5.0  -14.4  48  -10  -9    1025.3  984.5         
12:52 26.03   16 км    ясно  -3.9  -15.0  42  -4  +1    1025.9  984.8         
13:52 26.03 нст  16 км    ясно  -2.8  -16.7  33  -5  +3    1026.6  985.5         
14:52 26.03 СЗ  16 км    ясно  -2.2  -18.3  28  -7  -2    1026.1  984.8         
15:52 26.03 СЗ  16 км    ясно  -1.1  -18.9  24  -6  +2    1026.0  984.8         
16:52 26.03   16 км    ясно  0.0  -18.3  24  0  +17    1025.7  984.5  -13.3  0.0     
17:52 26.03 СЗ  3
{9} 
16 км    ясно  0.0  -17.2  26  -4  +6    1025.4  984.2         
18:52 26.03 З  6
{9} 
16 км    ясно  +1.1  -17.2  24  -5  -2    1025.2  983.8         
19:52 26.03 СЗ  16 км    ясно  +1.1  -17.8  23  -3  0    1025.2  983.8         

 

Местоположение метеостанции Mount Washington Regional Airport: широта 44.3661 долгота -71.5525 высота над уровнем моря 327 м.

В архиве по умолчанию представлена погода в Уитфилде за последние 1-2 суток. Обновление информации о фактической погоде в базе происходит ежечасно! Архивные данные за месяц целиком и за предыдущие месяцы Вы можете получить, выбрав интересующий диапазон дат из раскрывающегося списка и нажав кнопку "Ввод!".

Внимание! Архив погоды МЕТАР в базе сайта хранится не более 60 дней. Нет смысла пытаться выбрать более раннюю дату.

Внимание! Время в таблицах - всемирное. Для получения местного времени необходимо прибавить поправку, которая в Уитфилде равна -5 ч.

Ветер - указаны скорость ветра в м/с и направление, откуда дует ветер: С - северный, СВ - северо-восточный, В - восточный, ЮВ - юго-восточный, Ю - южный, ЮЗ - юго-западный, З - западный, СЗ - северо-западный.
Видимость - горизонтальная дальность видимости в метрах или километрах. При видимости от 1 до 10 км при отсутствии осадков обычно наблюдается дымка, при ухудшении видимости до 1 км и менее - туман. В сухую погоду видимость может ухудшаться дымом, пылью или мглою.
Атмосферные явления - указаны явления, наблюдавшиеся в указанный момент времени.
Облачность - указаны через наклонную черту верхняя и нижняя облачность в баллах и высота нижней границы облаков в метрах. Внимание: облачность, как и прочие метеорологические величины в США измеряются автоматическими метеостанциями. Указанные значения в баллах носят условный характер и показывают процент времени, в течение которого, в среднем, лазерный луч высотомера отражался от облаков обратно.
T - Температура воздуха - температура, измеренная на высоте 2 м над землей.
Td - Температура точки росы - температура, при понижении до которой содержащийся в воздухе водяной пар достигнет насыщения.
f - Относительная влажность воздуха - влажноcть воздуха, измеренная на высоте 2 м над землей.
Te - Эффективная температура - температура, которую ощущает одетый по сезону человек в тени. Характеристика душности погоды. При расчете учитывается влияние влажности воздуха и скорости ветра на теплоощущения человека.
Tes - Эффективная температура на солнце - температура, которую ощущает человек, с поправкой на солнечный нагрев. Характеристика знойности погоды. Зависит от высоты солнца над горизонтом, облачности и скорости ветра. Ночью, в пасмурную погоду, а также при ветре 12 м/с и более поправка равна нулю.
P - Атмосферное давление - приведенное к уровню моря атмосферное давление.
Po - Атмосферное давление - измеренное на уровне метеостанции атмосферное давление.
Tmin - Минимальная температура - минимум температуры воздуха на высоте 2 м над землей.
Tmax - Максимальная температура - максимум температуры воздуха на высоте 2 м над землей.
R - Количество осадков - Количество выпавших осадков за 3 или 6 часов, мм.
SD - Снежный покров - Высота снежного покрова, см.